Location: Carabito
(9.8355°N, 67.9249°W)
Time: 13:06:12
(UTC+00:00)

Cosmos 1782 - Pass Details

Date: 23 May 2024
Orbit: 510 x 517 km, 82.5° (Epoch: 24 June)

Event Time Altitude Azimuth Distance (km) Brightness Sun altitude
Exits shadow 00:14:58 - 198° (SSW) 1,884 5.5 -20.7°
Reaches altitude 10° 00:15:22 10° 199° (SSW) 1,723 5.3 -20.8°
Maximum altitude 00:19:01 48° 275° (W) 669 3.6 -21.6°
Drops below altitude 10° 00:22:41 10° 350° (N) 1,724 5.8 -22.4°
Sets 00:24:51 0° 356° (N) 2,610 6.7 -22.8°
